Washington, PA

9:53 PM EST on February 19, 2018 (GMT -0500)
Washington County

Weather History for KAFJ - May, 2014

Change the Weather History Date:

Sunday, May 4, 2014

  Actual Average Record
Temperature  
Mean Temperature 55 °F -  
Max Temperature 66 °F 67 °F 84 °F (2001)
Min Temperature 44 °F 43 °F 28 °F (2002)
Degree Days  
Heating Degree Days 10    
Growing Degree Days 5 (Base 50)    
Moisture  
Dew Point 35 °F    
Average Humidity 51    
Maximum Humidity 82    
Minimum Humidity 29    
Precipitation  
Precipitation 0.00 in - - ()
Sea Level Pressure  
Sea Level Pressure 29.91 in    
Wind  
Wind Speed 6 mph (WNW)    
Max Wind Speed 22 mph    
Max Gust Speed 36 mph    
Visibility 10 miles    
Events      
Averages and records for this station are not official NWS values.
T = Trace of Precipitation, MM = Missing Value Source: NWS Daily Summary

Daily Weather History Graph

Daily Weather History Graph

Search for Another Location

Airport or City:

Trip Planner

Search our weather history database for the weather conditions in past years. The results will help you decide how hot, cold, wet, or windy it might be!

Date:

Astronomy

May. 04, 2014 Rise Set
Actual Time 6:17 AM EDT 8:19 PM EDT
Civil Twilight 5:47 AM EDT 8:48 PM EDT
Nautical Twilight 5:11 AM EDT 9:25 PM EDT
Astronomical Twilight 4:32 AM EDT 10:04 PM EDT
Moon 10:39 AM EDT (5/4) 12:23 AM EDT (5/4)
Length of Visible Light 15h 01m
Length of Day
14h 01m
Waxing Crescent, 27% of the Moon is Illuminated
May 4
Waxing Crescent
May 6
First Quarter
May 14
Full
May 21
Last Quarter
May 28
New

Hourly Weather History & Observations

Time (EDT) Temp. Windchill Dew Point Humidity Pressure Visibility Wind Dir Wind Speed Gust Speed Precip Events Conditions
12:15 AM 53.6 °F - 35.6 °F 51% 29.89 in 10.0 mi West 3.5 mph - N/A   Overcast
12:35 AM 53.6 °F - 35.6 °F 51% 29.89 in 10.0 mi West 4.6 mph - N/A   Overcast
12:55 AM 53.6 °F - 35.6 °F 51% 29.90 in 10.0 mi West 3.5 mph - N/A   Overcast
1:15 AM 53.6 °F - 35.6 °F 51% 29.89 in 10.0 mi Calm Calm - N/A   Overcast
1:35 AM 50.0 °F - 37.4 °F 62% 29.89 in 10.0 mi SW 3.5 mph - N/A   Mostly Cloudy
1:55 AM 48.2 °F - 37.4 °F 66% 29.88 in 10.0 mi Calm Calm - N/A   Mostly Cloudy
2:15 AM 48.2 °F - 37.4 °F 66% 29.88 in 10.0 mi Calm Calm - N/A   Mostly Cloudy
2:35 AM 46.4 °F - 37.4 °F 71% 29.88 in 10.0 mi Calm Calm - N/A   Mostly Cloudy
2:55 AM 44.6 °F - 37.4 °F 76% 29.87 in 10.0 mi Calm Calm - N/A   Overcast
3:15 AM 46.4 °F 45.2 °F 37.4 °F 71% 29.87 in 10.0 mi WSW 3.5 mph - N/A   Overcast
3:35 AM 48.2 °F - 37.4 °F 66% 29.87 in 10.0 mi West 3.5 mph - N/A   Overcast
3:55 AM 48.2 °F - 37.4 °F 66% 29.87 in 10.0 mi Calm Calm - N/A   Overcast
4:15 AM 48.2 °F - 39.2 °F 71% 29.87 in 10.0 mi Calm Calm - N/A   Overcast
4:35 AM 48.2 °F - 39.2 °F 71% 29.87 in 10.0 mi West 3.5 mph - N/A   Overcast
4:55 AM 48.2 °F - 39.2 °F 71% 29.87 in 10.0 mi Calm Calm - N/A   Overcast
5:15 AM 48.2 °F - 39.2 °F 71% 29.88 in 10.0 mi WSW 3.5 mph - N/A   Overcast
5:35 AM 48.2 °F - 39.2 °F 71% 29.88 in 10.0 mi Calm Calm - N/A   Overcast
5:55 AM 48.2 °F - 37.4 °F 66% 29.88 in 10.0 mi Calm Calm - N/A   Overcast
6:15 AM 46.4 °F 44.3 °F 39.2 °F 76% 29.89 in 10.0 mi NW 4.6 mph - N/A   Overcast
6:35 AM 46.4 °F - 37.4 °F 71% 29.89 in 10.0 mi Calm Calm - N/A   Overcast
6:55 AM 46.4 °F - 39.2 °F 76% 29.88 in 10.0 mi Calm Calm - N/A   Overcast
7:15 AM 46.4 °F - 39.2 °F 76% 29.88 in 10.0 mi Calm Calm - N/A   Overcast
7:35 AM 48.2 °F - 39.2 °F 71% 29.89 in 10.0 mi Calm Calm - N/A   Overcast
7:55 AM 48.2 °F - 41.0 °F 76% 29.89 in 10.0 mi Calm Calm - N/A   Overcast
8:15 AM 48.2 °F - 41.0 °F 76% 29.89 in 10.0 mi Calm Calm - N/A   Overcast
8:35 AM 48.2 °F - 42.8 °F 82% 29.88 in 10.0 mi Calm Calm - N/A   Overcast
8:55 AM 50.0 °F - 41.0 °F 71% 29.88 in 10.0 mi Calm Calm - N/A   Overcast
9:15 AM 51.8 °F - 39.2 °F 62% 29.88 in 10.0 mi SSW 3.5 mph - N/A   Overcast
9:35 AM 53.6 °F - 39.2 °F 58% 29.88 in 10.0 mi WSW 8.1 mph - N/A   Overcast
9:55 AM 55.4 °F - 39.2 °F 54% 29.87 in 10.0 mi WSW 10.4 mph - N/A   Overcast
10:15 AM 57.2 °F - 39.2 °F 51% 29.86 in 10.0 mi WSW 10.4 mph 20.7 mph N/A   Overcast
10:35 AM 59.0 °F - 39.2 °F 48% 29.86 in 10.0 mi WSW 12.7 mph 18.4 mph N/A   Overcast
10:55 AM 60.8 °F - 39.2 °F 45% 29.86 in 10.0 mi WSW 16.1 mph 26.5 mph N/A   Overcast
11:15 AM 62.6 °F - 39.2 °F 42% 29.86 in 10.0 mi West 13.8 mph 25.3 mph N/A   Mostly Cloudy
11:35 AM 62.6 °F - 37.4 °F 39% 29.86 in 10.0 mi WSW 15.0 mph 27.6 mph N/A   Mostly Cloudy
11:55 AM 62.6 °F - 37.4 °F 39% 29.86 in 10.0 mi WSW 21.9 mph 31.1 mph N/A   Overcast
12:15 PM 62.6 °F - 37.4 °F 39% 29.86 in 10.0 mi West 13.8 mph 33.4 mph N/A   Overcast
12:35 PM 62.6 °F - 37.4 °F 39% 29.85 in 10.0 mi West 15.0 mph 31.1 mph N/A   Overcast
12:55 PM 64.4 °F - 39.2 °F 40% 29.85 in 10.0 mi WSW 21.9 mph 33.4 mph N/A   Mostly Cloudy
1:15 PM 64.4 °F - 37.4 °F 37% 29.85 in 10.0 mi WSW 20.7 mph 32.2 mph N/A   Overcast
1:35 PM 64.4 °F - 37.4 °F 37% 29.84 in 10.0 mi West 18.4 mph 28.8 mph N/A   Overcast
1:55 PM 64.4 °F - 37.4 °F 37% 29.85 in 10.0 mi West 19.6 mph 31.1 mph N/A   Overcast
2:15 PM 66.2 °F - 37.4 °F 35% 29.85 in 10.0 mi West 18.4 mph 35.7 mph N/A   Mostly Cloudy
2:35 PM 64.4 °F - 35.6 °F 34% 29.85 in 10.0 mi West 17.3 mph 27.6 mph N/A   Mostly Cloudy
2:55 PM 66.2 °F - 35.6 °F 32% 29.85 in 10.0 mi West 17.3 mph 26.5 mph N/A   Mostly Cloudy
3:15 PM 66.2 °F - 35.6 °F 32% 29.86 in 10.0 mi West 17.3 mph 25.3 mph N/A   Mostly Cloudy
3:35 PM 66.2 °F - 35.6 °F 32% 29.86 in 10.0 mi WNW 20.7 mph 29.9 mph N/A   Partly Cloudy
3:55 PM 66.2 °F - 35.6 °F 32% 29.86 in 10.0 mi WNW 13.8 mph 24.2 mph N/A   Scattered Clouds
4:15 PM 64.4 °F - 33.8 °F 32% 29.87 in 10.0 mi NW 13.8 mph 25.3 mph N/A   Partly Cloudy
4:35 PM 64.4 °F - 32.0 °F 30% 29.87 in 10.0 mi NW 13.8 mph 23.0 mph N/A   Clear
4:55 PM 64.4 °F - 32.0 °F 30% 29.88 in 10.0 mi WNW 13.8 mph 24.2 mph N/A   Clear
5:15 PM 62.6 °F - 30.2 °F 30% 29.89 in 10.0 mi NW 10.4 mph 23.0 mph N/A   Clear
5:35 PM 62.6 °F - 30.2 °F 30% 29.89 in 10.0 mi WNW 11.5 mph 25.3 mph N/A   Clear
5:55 PM 60.8 °F - 28.4 °F 29% 29.90 in 10.0 mi NW 12.7 mph 26.5 mph N/A   Clear
6:15 PM 60.8 °F - 28.4 °F 29% 29.92 in 10.0 mi WNW 10.4 mph 33.4 mph N/A   Clear
6:35 PM 59.0 °F - 28.4 °F 31% 29.93 in 10.0 mi NW 13.8 mph 31.1 mph N/A   Clear
6:55 PM 59.0 °F - 28.4 °F 31% 29.94 in 10.0 mi WNW 18.4 mph 26.5 mph N/A   Clear
7:15 PM 59.0 °F - 28.4 °F 31% 29.94 in 10.0 mi WNW 13.8 mph 28.8 mph N/A   Clear
7:35 PM 57.2 °F - 28.4 °F 33% 29.95 in 10.0 mi WNW 10.4 mph 17.3 mph N/A   Clear
7:55 PM 55.4 °F - 32.0 °F 41% 29.97 in 10.0 mi NW 10.4 mph 19.6 mph N/A   Clear
8:15 PM 55.4 °F - 30.2 °F 38% 29.97 in 10.0 mi NW 13.8 mph 19.6 mph N/A   Clear
8:35 PM 53.6 °F - 30.2 °F 41% 29.98 in 10.0 mi NW 10.4 mph - N/A   Clear
8:55 PM 51.8 °F - 28.4 °F 41% 30.00 in 10.0 mi North 12.7 mph 23.0 mph N/A   Clear
9:15 PM 51.8 °F - 28.4 °F 41% 30.01 in 10.0 mi NNW 9.2 mph 16.1 mph N/A   Clear
9:35 PM 48.2 °F - 28.4 °F 46% 30.02 in 10.0 mi North 6.9 mph - N/A   Clear
9:55 PM 48.2 °F - 30.2 °F 50% 30.04 in 10.0 mi North 8.1 mph - N/A   Clear
10:15 PM 48.2 °F - 30.2 °F 50% 30.05 in 10.0 mi North 8.1 mph - N/A   Clear
10:35 PM 48.2 °F - 30.2 °F 50% 30.07 in 10.0 mi North 6.9 mph - N/A   Clear
10:55 PM 46.4 °F 42.4 °F 30.2 °F 53% 30.07 in 10.0 mi NNW 8.1 mph - N/A   Clear
11:15 PM 46.4 °F 45.2 °F 30.2 °F 53% 30.08 in 10.0 mi NW 3.5 mph - N/A   Clear
11:35 PM 44.6 °F 43.1 °F 30.2 °F 57% 30.08 in 10.0 mi NNW 3.5 mph - N/A   Clear
11:55 PM 44.6 °F 41.4 °F 30.2 °F 57% 30.08 in 10.0 mi North 5.8 mph - N/A   Clear